Simultaneous Nadir Overpasses (SNOs) Predictions

Prediction of SNOs between AURA and NPP Satellite Orbit:

Table of predicted SNOs for the next 14.0 days since TLE Epoch: 9/18/2020
Index Date (AURA) Time (AURA) Lat,Lon (AURA) SZA (AURA ) Date (NPP) Time (NPP) Lat,Lon (NPP) SZA (NPP ) Distance(km) Time Diff (sec)
1 09/19/2020 02:52:18 -79.12,-148.84 88.64 09/19/2020 02:51:11 -79.12,-148.76 88.61 1.73 67
2 09/19/2020 03:41:39 79.31, 20.00 91.11 09/19/2020 03:41:50 79.30, 19.91 91.12 1.92 11
3 09/21/2020 19:08:46 -79.16, -32.69 87.72 09/21/2020 19:08:06 -79.15, -32.74 87.68 1.10 40
4 09/21/2020 19:58:04 79.46, 136.91 91.88 09/21/2020 19:58:41 79.47, 137.00 91.83 1.91 37
5 09/24/2020 11:25:10 -79.32, 84.17 86.95 09/24/2020 11:24:56 -79.32, 84.31 86.97 3.03 14
6 09/24/2020 12:14:31 79.50,-106.97 92.81 09/24/2020 12:15:35 79.50,-106.98 92.77 0.27 64
7 09/27/2020 02:52:19 79.01, 30.54 94.43 09/27/2020 02:51:15 79.01, 30.50 94.49 0.97 64
8 09/27/2020 03:41:38 -79.35,-159.74 86.01 09/27/2020 03:41:51 -79.35,-159.68 86.03 1.30 13
9 09/29/2020 19:08:45 79.12, 147.07 95.27 09/29/2020 19:08:08 79.11, 146.98 95.32 2.13 37
10 09/29/2020 19:58:05 -79.41, -43.42 85.12 09/29/2020 19:58:45 -79.42, -43.42 85.15 0.18 40
11 10/02/2020 11:25:12 79.18, -96.67 96.17 10/02/2020 11:25:02 79.18, -96.79 96.20 2.79 10
